Hamilton Island, Australia

9:27 PM AEST on November 24, 2017 (GMT +1000)
Hamilton Island

Weather History for YBHM - March, 2014

Change the Weather History Date:

Saturday, March 22, 2014

  Actual Average Record
Temperature  
Mean Temperature 76 °F -  
Max Temperature 81 °F - - ()
Min Temperature 72 °F - - ()
Cooling Degree Days 12    
Growing Degree Days 26 (Base 50)    
Moisture  
Dew Point 73 °F    
Average Humidity 86    
Maximum Humidity 94    
Minimum Humidity 71    
Precipitation  
Precipitation 0.08 in - - ()
Sea Level Pressure  
Sea Level Pressure 29.91 in    
Wind  
Wind Speed 19 mph ()    
Max Wind Speed 31 mph    
Max Gust Speed 34 mph    
Visibility 5.9 miles    
Events      
T = Trace of Precipitation, MM = Missing Value Source: Averaged Metar Reports

Daily Weather History Graph

Daily Weather History Graph

Search for Another Location

Airport or City:

Trip Planner

Search our weather history database for the weather conditions in past years. The results will help you decide how hot, cold, wet, or windy it might be!

Date:

Astronomy

Mar. 22, 2014 Rise Set
Actual Time 6:08 AM AEST 6:13 PM AEST
Civil Twilight 5:46 AM AEST 6:35 PM AEST
Nautical Twilight 5:20 AM AEST 7:01 PM AEST
Astronomical Twilight 4:55 AM AEST 7:27 PM AEST
Moon 10:19 PM AEST (3/22) 10:48 AM AEST (3/22)
Length of Visible Light 12h 49m
Length of Day
12h 05m
Waning Gibbous, 71% of the Moon is Illuminated
Mar 22
Waning Gibbous
Mar 24
Last Quarter
Mar 31
New
Apr 7
First Quarter
Apr 15
Full

Hourly Weather History & Observations

Time (AEST) Temp. Heat Index Dew Point Humidity Pressure Visibility Wind Dir Wind Speed Gust Speed Precip Events Conditions
12:00 AM 76 °F - 73 °F 89% 29.92 in - SE 16.1 mph - -  
12:05 AM 75.2 °F - 73.4 °F 94% 29.92 in 6.2 mi ESE 18.4 mph 31.1 mph N/A   Unknown
12:07 AM 75.2 °F - 71.6 °F 89% 29.92 in 6.2 mi East 27.6 mph - N/A   Unknown
12:30 AM 75.2 °F - 73.4 °F 94% 29.92 in 6.2 mi East 24.2 mph - N/A   Unknown
1:00 AM 77.0 °F - 73.4 °F 89% 29.89 in 6.2 mi East 19.6 mph - N/A   Unknown
1:17 AM 77.0 °F - 73.4 °F 89% 29.89 in - ESE 18.4 mph 29.9 mph N/A   Unknown
1:20 AM 75.2 °F - 71.6 °F 89% 29.89 in 6.2 mi ENE 31.1 mph - N/A   Unknown
1:29 AM 73.4 °F - 71.6 °F 94% 29.89 in 3.7 mi ENE 18.4 mph 34.5 mph N/A   Unknown
1:30 AM 73.4 °F - 71.6 °F 94% 29.89 in 3.7 mi ENE 19.6 mph 34.5 mph N/A   Unknown
1:55 AM 73.4 °F - 71.6 °F 94% 29.89 in - East 21.9 mph 34.5 mph N/A   Unknown
2:00 AM 73.4 °F - 71.6 °F 94% 29.89 in - ENE 24.2 mph - N/A   Unknown
2:30 AM 73.4 °F - 71.6 °F 94% 29.89 in 5.0 mi East 18.4 mph - N/A   Unknown
3:00 AM 74 °F - 73 °F 94% 29.88 in - East 17.3 mph - -  
3:00 AM 75.2 °F - 73.4 °F 94% 29.89 in 6.2 mi East 17.3 mph - N/A   Unknown
3:30 AM 75.2 °F - 73.4 °F 94% 29.86 in 6.2 mi ESE 19.6 mph - N/A   Unknown
4:00 AM 75.2 °F - 73.4 °F 94% 29.89 in 6.2 mi SE 15.0 mph - N/A   Unknown
4:30 AM 75.2 °F - 73.4 °F 94% 29.89 in 6.2 mi SE 16.1 mph - N/A   Unknown
5:04 AM 73.4 °F - 71.6 °F 94% 29.89 in 3.7 mi East 20.7 mph - N/A   Unknown
5:30 AM 75.2 °F - 73.4 °F 94% 29.89 in 5.0 mi ESE 13.8 mph - N/A   Unknown
5:33 AM 75.2 °F - 73.4 °F 94% 29.89 in 5.0 mi ESE 12.7 mph - N/A   Unknown
6:00 AM 75 °F - 73 °F 92% 29.90 in - SE 16.1 mph - -  
6:00 AM 75.2 °F - 73.4 °F 94% 29.89 in 6.2 mi SE 16.1 mph - N/A   Unknown
6:30 AM 75.2 °F - 71.6 °F 89% 29.92 in 6.2 mi SE 18.4 mph - N/A   Unknown
7:00 AM 77.0 °F - 71.6 °F 83% 29.92 in 6.2 mi SE 19.6 mph - N/A   Unknown
7:30 AM 77.0 °F - 73.4 °F 89% 29.92 in 6.2 mi SE 21.9 mph - N/A   Unknown
8:00 AM 77.0 °F - 73.4 °F 89% 29.95 in 6.2 mi SE 21.9 mph - N/A   Unknown
8:30 AM 77.0 °F - 73.4 °F 89% 29.95 in 6.2 mi SE 19.6 mph - N/A   Unknown
9:00 AM 78 °F - 73 °F 79% 29.95 in - ESE 21.9 mph - -  
9:00 AM 78.8 °F - 73.4 °F 83% 29.95 in 6.2 mi ESE 21.9 mph - N/A   Unknown
9:30 AM 80.6 °F 85.4 °F 73.4 °F 79% 29.95 in 6.2 mi ESE 19.6 mph - N/A   Unknown
10:00 AM 78.8 °F - 71.6 °F 78% 29.95 in 6.2 mi ESE 20.7 mph - N/A   Unknown
10:30 AM 78.8 °F - 73.4 °F 83% 29.95 in 6.2 mi ESE 18.4 mph - N/A   Unknown
11:00 AM 80.6 °F 85.4 °F 73.4 °F 79% 29.95 in 6.2 mi ESE 19.6 mph - N/A   Unknown
11:30 AM 80.6 °F 85.4 °F 73.4 °F 79% 29.95 in 6.2 mi ESE 20.7 mph - N/A   Unknown
12:00 PM 81 °F - 73 °F 71% 29.93 in - ESE 23.0 mph - -  
12:00 PM 80.6 °F 85.4 °F 73.4 °F 79% 29.92 in 6.2 mi ESE 23.0 mph - N/A   Unknown
12:30 PM 80.6 °F 84.6 °F 71.6 °F 74% 29.92 in 6.2 mi ESE 23.0 mph - N/A   Unknown
1:00 PM 80.6 °F 85.4 °F 73.4 °F 79% 29.92 in 6.2 mi ESE 20.7 mph - N/A   Unknown
1:30 PM 80.6 °F 84.6 °F 71.6 °F 74% 29.92 in 6.2 mi ESE 23.0 mph - N/A   Unknown
2:00 PM 80.6 °F 85.4 °F 73.4 °F 79% 29.89 in 6.2 mi ESE 19.6 mph - N/A   Unknown
2:30 PM 80.6 °F 85.4 °F 73.4 °F 79% 29.89 in 6.2 mi ESE 20.7 mph - N/A   Unknown
2:52 PM 78.8 °F - 71.6 °F 78% 29.89 in 6.2 mi ESE 19.6 mph 31.1 mph N/A   Unknown
3:00 PM 76 °F - 71 °F 80% 29.88 in - East 28.8 mph - -  
3:00 PM 75.2 °F - 71.6 °F 89% 29.89 in 6.2 mi East 28.8 mph - N/A   Unknown
3:06 PM 75.2 °F - 71.6 °F 89% 29.89 in 3.7 mi East 26.5 mph - N/A   Unknown
3:20 PM 77.0 °F - 71.6 °F 83% 29.89 in 6.2 mi ESE 18.4 mph - N/A   Unknown
3:30 PM 78.8 °F - 71.6 °F 78% 29.89 in 6.2 mi ESE 21.9 mph - N/A   Unknown
4:00 PM 78.8 °F - 71.6 °F 78% 29.89 in 6.2 mi SE 19.6 mph - N/A   Unknown
4:30 PM 78.8 °F - 73.4 °F 83% 29.89 in 6.2 mi ESE 19.6 mph - N/A   Unknown
5:00 PM 78.8 °F - 71.6 °F 78% 29.89 in 6.2 mi ESE 19.6 mph - N/A   Unknown
5:30 PM 77.0 °F - 73.4 °F 89% 29.89 in 6.2 mi SE 17.3 mph - N/A   Unknown
6:00 PM 76 °F - 72 °F 85% 29.91 in - SE 21.9 mph - -  
6:00 PM 77.0 °F - 71.6 °F 83% 29.92 in 6.2 mi SE 21.9 mph - N/A   Unknown
6:30 PM 77.0 °F - 73.4 °F 89% 29.92 in 6.2 mi SE 20.7 mph - N/A   Unknown
7:00 PM 75.2 °F - 73.4 °F 94% 29.92 in 6.2 mi SE 20.7 mph - N/A   Unknown
7:30 PM 77.0 °F - 73.4 °F 89% 29.95 in 6.2 mi SE 21.9 mph - N/A   Unknown
8:00 PM 77.0 °F - 73.4 °F 89% 29.95 in 6.2 mi SE 23.0 mph - N/A   Unknown
8:30 PM 77.0 °F - 73.4 °F 89% 29.95 in 6.2 mi ESE 19.6 mph - N/A   Unknown
9:00 PM 76 °F - 73 °F 88% 29.96 in - ESE 21.9 mph - -  
9:00 PM 77.0 °F - 73.4 °F 89% 29.95 in 6.2 mi ESE 21.9 mph - N/A   Unknown
9:30 PM 77.0 °F - 73.4 °F 89% 29.98 in 6.2 mi ESE 24.2 mph - N/A   Unknown
10:00 PM 77.0 °F - 71.6 °F 83% 29.95 in 6.2 mi ESE 21.9 mph - N/A   Unknown
10:30 PM 77.0 °F - 73.4 °F 89% 29.95 in 6.2 mi ESE 20.7 mph - N/A   Unknown
11:00 PM 77.0 °F - 71.6 °F 83% 29.95 in 6.2 mi ESE 21.9 mph - N/A   Unknown
11:30 PM 77.0 °F - 71.6 °F 83% 29.95 in 6.2 mi ESE 21.9 mph - N/A   Unknown